Location: Kelshall
(52.0000°N, 0.0500°W)
Time: 22:53:08
(UTC+00:00)

Cosmos 1674 - Pass Details

Date: 18 September 2020
Orbit: 495 x 517 km, 82.5° (Epoch: 20 October)

Event Time Altitude Azimuth Distance (km) Brightness Sun altitude
Rises 19:01:44 0° 358° (N) 2,654 6.5 -9.1°
Reaches altitude 10° 19:04:13 10° 13° (NNE) 1,762 5.4 -9.5°
Maximum altitude 19:07:21 23° 68° (ENE) 1,136 4.0 -10.0°
Enters shadow 19:09:35 15° 112° (ESE) 1,478 4.3 -10.3°
